TIANLIAN 1-04           
1 41869U 16072A   19259.41954390 -.00000116  00000-0  00000+0 0  9993
2 41869   0.8677 283.1674 0014822 178.0942 121.9845  1.00271383 10586
CZ-3C R/B               
1 41870U 16072B   19259.35489125  .00072876 -10125-6  85350-3 0  9999
2 41870  17.0574 353.9354 5493443 322.2844   9.7374  4.94810367 33283